Location: Dzierzno
(50.6159°N, 19.2852°E)
Time: 01:56:12
(UTC+00:00)

CZ-2D R/B - Pass Details

Date: 18 November 2025
Orbit: 404 x 414 km, 97.4° (Epoch: 04 December)

Event Time Altitude Azimuth Distance (km) Brightness Sun altitude
Rises 16:21:51 0° 174° (S) 2,330 6.6 -13.9°
Reaches altitude 10° 16:23:51 10° 178° (S) 1,471 5.6 -14.2°
Maximum altitude 16:26:57 58° 259° (WSW) 484 3.4 -14.7°
Drops below altitude 10° 16:30:05 10° 339° (NNW) 1,480 5.6 -15.2°
Sets 16:32:06 0° 344° (NNW) 2,345 6.6 -15.5°
